Terug naar catalogus

COSMOS 917 DEB

LostHEO
NORAD 32965·DEBRIS·🇷🇺 Russia

Gelanceerd Jun 16, 1977 vanaf Plesetsk Cosmodrome

Loading…

Volgende Passages (komende 24 uur)

TLE

VerouderdSource: Space-Track

Epoch: Jul 3, 2011, 18:15 UTC

1 32965U 77047N   11184.76073214  .00000316  00000-0  10000-3 0  9999
2 32965  67.2853 103.9699 5414506  87.9369 329.9385  1.99577087 35541

Volg COSMOS 917 DEB in realtime met AllMySat

Download on the App Store